Wind_Speed
12 12 12 13 14 16 17 19 20 21 21 21 21 20 19 19 17 16 14 13 11 10 9 8 7 6 5 3 2 2 2 3 3 3 4 4 4 5 5 5 6 7 7 7 7 7 8 8 9 9 10 10 10 10 10 10 9 8 8 8 7 6 5 4 4 3 4 4 4
12 13 14 16 17 18 19 20 21 22 22 22 21 21 20 18 17 15 13 11 10 9 8 7 6 5 4 3 3 2 2 2 2 3 3 3 4 4 5 6 7 8 8 8 7 7 7 8 8 8 8 9 9 10 10 10 9 9 9 8 8 7 6 6 5 4 4 3 3
14 15 17 18 19 19 20 21 22 22 22 22 21 20 19 17 15 13 11 10 9 9 8 7 6 6 5 5 4 4 3 3 3 4 4 4 5 5 6 7 8 8 8 8 7 7 7 7 7 7 7 8 8 9 9 9 9 8 8 8 7 6 5 5 4 3 3 2 2
16 17 18 19 20 20 21 21 22 21 21 21 20 19 17 16 14 12 10 10 9 8 8 7 7 6 6 5 5 4 4 5 5 6 6 6 7 7 7 7 7 7 7 7 6 6 6 6 6 6 7 7 7 7 7 7 7 7 7 6 5 4 3 3 2 1 1 2 3
18 19 19 20 20 21 21 21 21 21 20 20 19 17 15 14 12 11 10 9 9 8 8 8 7 6 6 5 5 5 5 6 7 8 8 8 8 8 7 7 7 6 6 6 6 5 6 6 6 7 7 7 7 6 6 6 5 5 4 4 3 2 2 1 1 2 3 4 4
18 19 20 20 21 21 21 21 21 21 20 19 17 15 14 12 11 11 10 10 9 9 9 8 7 6 5 5 6 7 7 8 8 9 8 8 7 7 6 6 6 6 6 6 6 6 6 7 7 7 7 6 6 5 4 4 3 3 2 2 2 2 2 3 3 4 5 5 6
19 19 20 20 21 21 21 21 21 20 19 18 16 14 13 12 11 11 11 11 10 9 8 7 6 5 5 6 7 8 9 9 9 8 8 7 6 5 5 5 5 6 6 6 6 6 6 6 6 6 5 4 4 3 2 2 1 1 2 2 3 3 4 5 5 6 6 7 7
20 20 21 21 21 21 21 21 20 20 19 17 15 13 12 12 11 11 11 11 10 9 7 6 5 6 7 8 8 9 9 8 8 7 6 5 4 4 4 5 5 5 5 5 5 5 5 5 4 4 3 3 2 2 2 2 3 3 4 5 5 6 6 6 7 7 8 8 9
21 21 22 22 21 21 21 20 20 19 18 16 15 13 13 12 12 12 11 10 9 8 7 6 6 7 8 8 8 8 7 7 6 5 4 3 3 3 4 4 5 4 4 4 4 4 4 5 5 5 4 5 5 5 5 6 6 7 7 7 8 9 9 9 9 10 10 10 11
21 22 22 22 21 21 20 20 19 19 17 16 15 14 13 13 12 12 11 11 10 8 7 7 7 7 7 7 7 6 6 5 5 4 3 3 3 3 3 4 4 4 4 5 5 5 6 6 6 7 7 7 8 8 8 8 9 9 9 9 10 10 11 11 11 12 12 12 12
22 22 22 21 21 20 20 19 19 18 17 16 15 14 13 13 13 13 12 12 10 8 7 7 7 7 7 6 6 6 5 4 4 3 3 3 3 3 3 4 5 5 6 7 7 8 8 8 8 8 8 8 8 8 9 9 9 10 10 10 10 10 11 11 11 11 12 12 13
22 22 22 21 21 20 19 19 18 17 17 16 15 14 14 14 13 13 13 13 11 9 8 7 8 8 7 7 6 6 5 4 4 3 3 4 4 4 5 6 7 7 8 9 9 9 9 9 9 8 8 7 7 7 8 8 8 9 9 9 9 9 9 9 9 9 10 10 11
22 22 22 21 21 20 19 18 18 17 16 16 15 15 15 15 14 14 14 13 11 9 8 7 8 8 8 8 7 6 5 4 4 4 5 5 6 7 8 8 9 9 9 9 9 9 9 9 9 8 8 8 7 7 7 7 7 7 7 7 7 7 7 8 8 9 9 10 11
23 23 22 22 21 20 19 18 17 16 16 15 15 15 15 15 15 15 14 12 10 8 7 7 7 7 8 8 8 7 6 6 6 6 7 8 9 9 10 10 10 9 8 8 7 7 8 8 8 8 8 7 7 7 6 6 6 6 6 6 7 8 8 9 9 10 11 12 13
24 23 23 22 21 20 19 18 18 17 16 15 15 15 15 15 15 15 14 12 9 7 7 7 8 8 8 8 8 9 9 8 9 9 10 10 10 10 10 10 9 8 7 7 7 7 7 7 7 7 7 7 6 6 6 6 6 7 7 8 8 9 10 11 12 12 13 14 15
24 24 23 22 21 20 20 19 18 17 17 16 16 16 16 16 15 15 14 11 9 7 7 8 8 9 9 9 9 10 11 11 11 12 12 11 10 10 9 8 7 7 7 7 7 7 7 7 7 7 7 7 7 7 7 8 8 8 9 9 10 11 12 12 13 14 15 16 16
23 23 22 22 21 21 20 20 19 18 18 17 17 16 16 16 15 15 13 11 9 8 8 9 9 10 10 10 10 11 12 12 12 12 12 11 9 8 7 7 7 7 7 7 7 8 8 8 8 8 8 8 9 9 9 10 10 11 11 12 12 13 13 14 15 15 16 16 16
22 21 21 21 21 21 20 20 20 20 19 19 18 17 16 16 15 14 12 10 8 9 10 10 11 11 11 11 12 12 12 12 12 12 11 9 8 7 6 6 7 7 8 8 8 8 9 9 9 10 10 10 11 11 12 12 12 13 13 13 13 14 14 15 15 16 16 16 16
20 19 19 19 19 19 20 20 20 20 20 19 18 17 16 14 13 12 10 9 9 10 11 13 13 13 13 13 14 14 13 12 12 11 10 9 8 7 6 6 7 7 8 8 9 9 9 9 10 11 11 12 13 13 14 14 14 14 14 14 14 15 15 16 16 16 16 17 17
19 18 17 17 17 18 18 18 18 18 18 17 16 15 13 12 10 10 10 10 11 12 14 15 15 15 15 16 16 15 14 13 12 11 10 9 8 7 6 7 7 8 8 8 9 9 10 10 11 12 13 13 14 14 14 14 14 14 14 15 15 15 16 16 16 17 17 17 17
17 16 16 15 15 15 15 15 14 14 13 13 12 11 9 8 8 9 11 12 14 15 16 16 16 16 15 15 15 14 13 12 11 10 9 8 7 7 7 8 8 8 9 9 10 10 11 12 13 13 14 14 14 15 15 15 15 15 15 15 15 16 16 16 17 17 17 18 18
16 15 14 13 13 12 11 11 10 9 9 9 9 8 7 7 8 10 12 13 14 14 14 14 13 13 13 13 13 12 11 10 9 9 8 8 7 8 8 9 9 9 10 10 11 12 12 13 13 14 14 15 15 15 15 15 15 15 15 16 16 16 17 17 17 18 18 18 18
15 13 12 11 10 9 9 8 8 8 8 8 9 9 9 10 11 11 12 12 13 13 14 14 13 13 12 12 11 11 10 10 9 8 8 8 8 9 10 10 10 11 11 12 12 13 13 14 15 15 15 15 15 15 15 15 15 15 15 16 16 17 17 17 18 18 18 18 18
13 11 9 8 7 7 7 8 8 9 9 10 11 12 12 13 14 14 15 16 16 17 17 17 16 16 15 14 14 13 12 11 10 10 10 10 10 11 11 11 12 12 13 14 14 14 15 15 16 16 16 16 16 15 15 15 15 15 15 15 16 16 17 18 18 18 19 19 19
11 9 8 8 8 8 9 10 11 12 13 13 14 15 16 17 17 18 19 19 20 20 20 20 20 20 19 19 18 17 15 14 13 13 13 13 13 13 14 14 14 15 15 16 16 16 16 16 16 15 15 15 15 16 15 15 15 14 15 15 16 16 17 18 18 19 19 20 20
10 9 8 8 8 9 10 12 13 14 14 15 16 17 18 19 19 19 20 20 20 20 20 20 21 21 20 20 19 18 17 17 16 16 16 17 17 17 17 18 18 18 18 18 17 17 17 17 16 15 15 15 15 15 15 15 15 14 14 15 16 16 17 17 17 17 18 18 18
10 9 9 9 9 10 11 12 13 14 15 16 17 18 18 19 19 19 18 18 18 18 18 18 19 20 19 19 18 18 17 18 18 18 18 19 19 20 20 20 20 19 19 18 18 18 17 16 15 15 14 13 13 13 13 13 14 15 15 16 16 17 17 17 17 17 17 17 17
10 10 9 10 10 11 11 12 14 15 16 16 17 17 17 17 17 17 16 17 17 17 17 18 19 19 18 18 17 17 17 18 18 18 19 19 20 20 20 19 19 19 18 17 17 16 16 15 15 14 13 13 13 13 14 14 15 15 16 16 16 16 16 16 17 17 17 18 18
10 10 10 10 11 11 12 13 14 14 15 15 15 15 15 15 15 15 15 15 16 16 16 17 17 17 17 17 17 17 17 17 18 18 18 18 18 18 18 18 18 17 17 16 16 15 15 14 14 14 13 13 13 14 14 15 15 15 15 15 15 15 15 16 17 17 18 18 18
9 9 10 10 11 11 12 12 13 13 13 13 13 13 13 13 13 13 13 13 14 15 15 15 15 15 16 16 16 17 17 17 17 17 17 17 17 17 17 17 17 17 16 16 15 15 14 14 14 14 13 13 13 14 14 14 14 14 14 15 15 16 16 17 17 17 17 16 16
8 9 9 10 10 10 11 11 11 12 12 12 11 11 11 11 11 11 11 11 12 13 14 14 14 15 15 16 16 16 16 17 17 17 17 17 17 18 18 17 17 17 16 15 15 14 14 14 14 14 14 14 13 13 13 13 14 15 15 16 16 17 17 16 16 16 16 16 16
7 8 9 9 9 10 10 10 10 10 11 10 10 10 10 10 10 10 10 11 12 12 13 13 14 15 15 16 16 16 16 16 16 17 17 17 17 17 17 17 16 16 15 15 14 14 14 14 14 14 14 14 14 14 14 15 15 16 16 16 16 16 16 15 15 16 16 16 16
6 7 8 8 8 9 9 9 9 9 9 9 9 9 9 9 9 9 9 10 11 12 12 13 14 14 15 15 16 16 16 16 16 16 16 16 16 16 16 16 15 15 14 14 14 14 14 14 15 15 15 15 15 15 16 16 16 16 16 16 16 16 16 15 15 15 15 16 16
6 7 7 8 8 8 8 8 8 8 8 8 8 8 9 9 9 9 9 10 12 13 14 14 15 15 15 16 16 16 16 16 16 15 15 15 15 15 15 15 15 14 14 14 13 14 14 15 15 16 17 17 16 16 16 16 16 16 16 16 16 16 16 15 15 15 15 16 16
6 6 7 7 8 8 8 8 8 8 8 8 8 9 9 10 10 10 11 12 14 15 16 16 16 16 16 16 16 16 16 15 15 15 14 14 14 14 15 14 14 14 14 14 14 15 15 16 17 18 18 18 17 16 16 16 16 16 16 16 16 16 15 15 15 15 15 15 16
6 6 7 7 8 8 8 8 7 7 7 8 9 10 11 12 12 13 14 16 16 17 17 17 17 17 17 16 16 16 15 15 14 14 14 14 14 14 14 15 14 14 14 15 15 16 17 18 19 19 18 17 16 16 16 15 15 16 16 16 16 16 15 15 15 15 15 15 15
6 7 8 8 8 8 8 7 7 7 8 9 10 11 12 14 15 15 16 17 17 17 17 17 17 16 16 16 16 15 15 14 14 14 14 14 14 14 14 15 15 15 16 16 17 18 19 20 19 19 17 16 15 15 15 15 15 15 15 16 16 16 15 15 15 15 15 15 15
7 8 9 9 9 8 8 8 8 8 9 10 11 12 14 15 15 16 16 16 16 16 16 16 16 15 15 15 15 15 15 14 14 14 14 14 14 14 14 15 16 17 17 18 19 20 20 20 19 18 16 15 15 15 15 14 15 15 15 15 15 15 15 15 15 15 15 15 15
8 9 10 10 9 9 8 8 8 9 10 11 12 13 14 15 15 15 15 15 14 14 15 15 15 15 15 15 16 16 16 15 15 14 14 13 13 14 14 15 17 18 19 20 20 21 20 19 18 17 16 15 14 14 14 14 14 15 15 15 15 15 15 15 15 15 15 16 16
9 10 11 11 10 10 9 9 9 10 11 12 13 13 14 14 14 14 14 14 14 14 14 14 15 15 15 15 16 16 16 16 15 14 13 13 13 14 14 16 17 19 20 21 21 20 19 18 17 16 15 14 14 13 13 14 14 15 15 15 15 16 16 16 15 15 15 16 16
11 12 12 12 11 10 10 10 10 11 12 13 13 13 14 14 14 13 13 13 13 13 14 15 15 15 16 16 16 16 16 16 15 14 13 13 13 14 15 16 18 20 21 21 21 19 18 16 16 15 15 14 14 14 14 14 14 15 15 16 16 16 16 17 16 16 16 16 16
Wind_Direction
345 341 335 331 328 325 324 323 323 321 319 316 313 311 309 308 307 307 309 312 316 318 319 319 320 321 323 328 342 13 36 40 47 47 45 45 43 37 29 19 13 10 10 8 8 10 13 13 13 16 20 22 26 31 35 38 40 41 41 41 43 41 40 46 57 72 82 87 85
344 341 338 335 332 330 328 327 325 322 319 316 313 311 309 308 306 307 309 313 316 316 315 312 311 307 301 297 301 315 335 349 0 6 7 8 6 0 354 351 349 350 351 353 354 358 2 3 6 15 23 28 35 43 49 50 49 49 50 52 53 54 54 57 59 63 65 67 59
344 342 339 336 333 331 328 326 324 321 318 315 312 310 308 307 307 307 309 312 314 312 309 303 298 292 286 287 290 295 306 322 332 337 338 340 340 340 342 344 345 345 344 344 345 346 350 353 359 11 24 33 41 49 54 55 54 53 53 53 54 55 56 54 46 35 22 3 339
344 341 338 336 332 329 326 324 322 319 317 314 312 309 307 306 306 306 307 309 308 304 298 291 287 283 282 286 290 296 304 314 323 329 334 337 340 342 344 346 348 349 348 347 349 352 356 1 9 21 31 40 48 54 57 57 55 52 50 48 48 50 51 49 37 0 313 293 286
342 340 337 334 331 327 324 322 320 318 316 314 311 308 306 304 303 303 302 301 297 292 287 282 280 280 282 288 295 302 309 316 324 330 335 338 340 342 345 349 353 357 0 4 8 14 18 22 31 40 47 52 55 56 54 52 49 44 39 34 28 18 2 333 296 274 267 265 266
340 338 335 332 329 326 323 321 319 317 315 313 310 306 302 300 299 297 294 289 285 282 278 276 276 278 283 290 298 307 314 320 325 328 331 333 336 339 344 352 358 4 12 20 27 31 33 37 45 52 57 58 59 58 52 46 42 31 18 359 334 311 291 276 270 265 263 262 262
338 336 333 330 327 324 321 319 318 316 314 311 307 303 298 294 292 289 284 280 277 274 270 267 268 276 288 298 305 311 316 320 322 325 327 329 334 341 349 357 6 17 26 32 36 39 39 39 43 49 53 53 56 54 44 32 13 336 303 280 276 270 265 260 260 257 255 257 261
337 335 332 328 325 322 319 317 315 314 311 307 303 297 292 287 283 279 275 272 268 264 261 258 264 282 298 307 313 316 317 319 320 323 325 330 337 348 0 11 20 29 33 32 31 30 26 22 19 17 14 6 354 336 318 302 280 270 268 265 263 262 260 256 253 251 250 252 254
335 333 330 327 324 321 318 315 313 310 307 303 297 291 284 278 274 270 265 261 258 255 255 259 274 292 306 313 315 316 315 316 318 320 325 333 344 356 8 15 18 18 15 10 4 355 345 338 332 326 319 313 305 299 294 288 276 269 265 262 261 261 260 258 255 253 251 251 249
332 330 328 325 322 319 316 313 310 307 303 298 291 283 276 271 267 261 256 253 252 253 258 271 289 305 314 316 314 310 307 306 307 311 317 327 336 344 351 355 352 344 338 334 328 323 318 315 311 308 307 306 303 299 294 288 279 272 267 266 266 265 264 263 263 260 257 255 253
328 327 325 322 320 317 314 310 307 304 299 293 285 277 271 266 261 255 251 250 250 257 271 288 307 316 317 312 304 297 290 286 283 286 294 300 307 312 317 320 319 315 312 313 312 310 308 307 307 307 306 306 304 301 296 291 285 279 275 274 273 272 270 271 271 267 262 258 257
325 324 322 321 319 316 312 308 304 300 295 288 280 273 267 263 259 255 251 248 253 266 286 304 318 320 314 304 295 287 280 272 261 261 266 273 279 286 294 301 305 306 306 306 306 304 303 303 304 305 306 306 303 298 294 291 287 284 282 281 280 277 275 276 275 271 267 264 261
323 322 321 320 318 314 310 306 301 297 292 285 278 271 266 262 259 256 252 249 255 272 294 312 321 319 311 299 290 283 276 267 259 258 263 270 279 287 294 300 304 305 305 304 302 300 298 298 299 299 300 300 297 294 290 287 284 282 283 284 283 281 281 283 283 281 278 276 273
322 321 320 319 316 313 308 304 299 295 290 283 277 270 266 262 259 256 253 251 257 273 298 314 319 317 309 300 292 284 278 274 272 273 277 282 288 293 297 300 302 303 304 302 300 298 296 296 296 295 294 293 292 291 288 285 282 281 283 286 287 288 290 293 292 290 288 286 284
321 321 320 318 315 311 307 302 298 293 289 283 277 272 267 262 259 256 254 253 260 277 301 315 317 314 308 302 295 291 289 288 287 287 287 289 291 293 295 297 299 301 302 303 302 301 300 299 298 297 295 293 293 292 291 289 288 290 291 293 293 294 295 296 296 294 292 290 288
322 322 321 319 315 311 306 301 297 293 288 284 280 274 268 263 260 257 255 256 266 286 307 316 317 314 308 304 300 299 299 298 296 293 290 289 288 287 288 292 297 301 305 308 309 310 309 308 307 305 303 301 300 300 299 299 299 298 298 298 297 297 296 296 295 294 293 291 288
323 324 324 321 317 312 307 302 297 293 289 286 282 277 270 265 261 258 257 260 274 294 308 314 315 312 308 304 302 302 303 303 300 296 291 286 282 281 285 293 301 308 313 316 318 318 317 315 313 312 311 309 308 306 305 303 302 301 299 298 297 296 296 295 294 293 291 290 287
325 326 326 324 321 316 311 305 299 295 291 287 283 278 272 267 262 260 260 266 281 297 305 308 308 306 303 300 300 300 300 301 301 299 294 289 285 286 293 302 312 319 322 323 323 321 319 317 314 312 310 309 307 305 303 302 300 298 297 296 295 295 295 294 293 291 290 288 286
326 327 327 326 324 321 317 311 304 298 293 290 286 282 276 269 264 263 265 271 282 293 300 302 302 300 297 295 294 294 294 295 299 300 299 298 298 301 308 317 323 325 326 324 322 319 316 313 310 308 306 305 303 301 300 299 297 296 296 296 295 295 294 293 292 290 288 287 285
327 327 327 328 328 327 325 320 314 308 303 299 297 293 286 276 269 267 271 278 288 295 298 300 300 300 298 297 295 294 293 293 297 302 306 310 314 318 323 326 326 324 322 319 317 314 311 309 307 306 304 303 301 299 298 298 298 297 297 296 296 295 294 293 291 289 288 286 285
329 329 330 332 335 338 338 336 333 329 325 322 319 314 305 290 279 278 285 292 297 300 302 303 305 306 307 308 307 304 302 301 306 312 318 322 326 329 331 330 327 323 319 315 313 311 310 309 308 306 304 303 301 300 299 299 298 298 298 297 296 295 294 293 291 289 287 287 286
332 333 335 339 346 354 360 3 5 5 4 1 356 349 337 322 311 307 308 309 312 315 318 320 323 324 325 325 323 321 320 322 327 332 335 337 339 339 339 337 332 327 322 319 316 314 313 312 310 308 306 304 303 302 301 300 299 298 298 297 296 295 294 292 290 289 288 287 286
338 339 343 350 359 11 23 34 38 38 32 24 15 6 358 350 345 342 341 343 347 349 350 351 350 348 345 342 341 342 344 348 351 351 350 348 347 346 345 342 338 334 329 324 321 319 317 315 313 311 309 307 305 303 301 300 299 298 297 297 296 295 293 292 290 289 289 288 288
349 353 0 9 18 24 32 45 43 37 29 21 15 10 7 5 4 5 6 7 7 6 5 4 2 0 358 357 355 355 356 356 355 352 349 346 344 342 340 337 334 331 327 324 322 320 319 317 315 313 310 307 305 303 301 300 299 298 297 296 295 294 293 292 291 291 291 291 291
360 6 17 28 40 42 38 34 31 27 24 20 17 15 14 13 12 12 11 10 9 8 6 4 3 1 360 358 355 353 350 347 344 340 336 333 330 328 325 323 321 320 319 319 319 319 318 317 314 311 308 306 304 303 302 300 299 298 297 296 295 294 294 294 294 294 294 295 294
3 10 21 30 32 31 28 25 24 22 21 18 17 15 14 12 11 9 8 6 5 3 2 0 359 357 356 353 350 345 341 337 333 330 327 325 322 320 318 316 315 316 317 318 318 317 316 314 312 309 307 304 303 302 302 301 300 299 298 297 296 296 296 296 296 296 297 296 295
3 10 16 17 17 19 19 18 16 15 14 12 12 10 9 7 5 4 2 0 359 357 355 354 353 352 350 347 343 338 334 330 327 325 324 322 320 319 318 317 317 318 318 318 316 315 314 312 311 310 308 305 303 302 301 300 301 301 300 299 298 298 297 297 297 297 297 297 296
9 13 14 12 14 16 15 11 9 8 7 6 6 5 4 3 2 0 358 355 354 352 351 349 348 346 343 340 336 333 330 327 326 324 323 323 322 321 321 320 319 319 318 316 315 315 315 314 313 312 311 307 304 303 302 301 302 302 301 300 299 298 297 297 297 297 297 297 297
15 17 18 19 20 18 14 11 8 7 6 5 5 4 4 2 0 357 354 352 350 349 346 344 343 341 338 335 333 331 330 329 328 328 327 326 325 323 322 320 319 318 317 317 317 317 317 317 316 315 313 310 306 304 303 302 302 301 300 298 298 297 297 297 298 298 297 297 297
19 22 24 26 25 21 17 14 11 10 9 8 7 5 2 360 356 353 350 347 345 344 342 340 338 337 335 335 334 334 334 334 333 331 329 326 324 322 321 320 319 319 319 319 319 319 319 318 317 316 314 310 307 303 301 300 300 299 297 297 297 297 298 298 298 297 297 296 297
25 27 29 29 28 24 20 16 13 10 7 5 2 358 354 351 348 345 342 340 340 341 340 339 338 338 338 338 338 337 336 335 333 330 327 324 322 321 320 320 320 320 320 320 319 319 318 317 316 314 312 310 305 300 297 296 296 296 296 295 296 297 298 298 297 297 297 296 296
27 30 30 28 26 21 16 11 6 2 358 355 351 347 344 340 337 335 334 336 338 339 339 339 339 338 338 337 336 335 333 331 329 327 324 322 320 320 320 320 321 321 321 320 318 317 316 314 313 311 310 307 301 297 294 294 294 294 294 294 294 295 296 297 297 297 297 296 295
26 27 25 22 17 11 6 0 355 352 348 346 344 341 338 334 333 331 331 333 335 336 336 336 336 335 334 333 331 330 329 327 326 324 322 320 320 319 320 321 321 321 321 319 317 315 314 313 311 309 307 304 299 295 293 293 292 293 293 294 294 296 296 296 296 295 295 295 294
18 17 14 9 3 358 352 348 346 344 342 342 341 340 339 337 336 334 333 332 333 333 333 333 333 332 331 329 328 327 326 326 325 323 322 321 321 321 321 322 322 321 320 318 316 315 314 314 312 310 307 304 298 294 293 292 291 292 293 294 295 296 297 296 295 294 293 292 291
6 2 357 352 348 344 341 340 340 340 340 340 341 342 343 343 342 340 337 335 334 334 334 333 333 332 331 329 329 328 327 326 326 325 324 323 323 323 323 322 322 321 320 319 319 318 318 317 315 313 310 305 299 295 293 292 293 293 294 295 297 298 297 297 296 294 292 291 290
349 344 339 335 333 333 333 334 335 337 339 340 342 343 344 344 344 342 340 338 337 336 335 334 334 333 332 331 330 329 329 328 328 327 327 326 325 324 323 322 321 322 322 322 322 322 321 320 318 316 312 307 301 297 296 295 295 296 297 298 299 299 299 298 297 295 293 292 291
331 325 323 322 323 324 326 328 330 333 336 339 341 342 342 342 341 340 339 338 338 337 336 335 335 334 332 331 330 330 330 330 329 328 327 326 325 324 323 323 323 324 325 325 325 325 324 322 320 318 314 309 303 300 299 299 299 300 301 301 301 301 301 300 299 296 294 293 292
315 312 311 312 314 317 320 323 326 329 333 336 338 338 339 339 339 338 337 337 337 336 335 335 335 333 332 330 329 329 330 330 329 328 327 326 325 325 324 324 325 326 327 328 328 327 325 323 321 319 316 311 306 303 301 301 302 302 303 303 303 303 302 302 301 298 296 294 293
305 303 304 306 309 311 315 318 322 326 330 332 334 335 335 336 336 336 336 336 337 336 335 335 334 333 331 330 328 328 328 329 328 327 326 325 325 325 326 326 326 327 327 328 328 328 326 324 322 321 319 313 308 305 303 303 304 304 304 304 305 305 305 304 302 299 297 295 293
299 299 301 303 306 309 312 316 320 323 327 329 330 331 331 332 333 334 335 336 337 337 336 335 334 333 331 330 328 326 326 327 327 326 325 324 324 325 327 327 327 327 327 328 329 328 327 324 323 323 322 316 310 307 305 305 305 305 306 307 307 307 307 305 303 300 298 297 295
296 296 299 302 305 308 311 314 318 321 324 325 326 327 327 329 331 333 335 336 337 337 336 335 334 333 331 329 327 325 325 326 325 325 324 323 324 325 327 327 327 327 328 329 330 330 328 325 324 324 323 317 312 309 308 308 307 307 308 309 309 308 307 305 303 301 299 297 297
Height
823 823 823 823 822 822 821 820 819 818 817 816 815 814 813 811 810 809 807 806 805 804 803 803 802 801 801 800 799 799 799 798 798 797 797 796 795 795 794 794 794 793 793 793 792 792 792 792 792 792 792 792 792 792 792 792 792 791 791 790 790 790 790 791 792 792 793 793 793
823 822 822 822 821 821 820 819 818 817 816 815 814 813 812 811 810 809 808 807 806 805 804 803 803 802 801 801 800 800 799 799 798 797 796 796 795 794 794 793 793 792 792 792 792 792 791 791 791 791 791 792 792 792 792 792 792 792 791 791 790 790 790 791 792 792 793 793 793
822 822 821 821 820 819 819 818 817 816 816 814 814 813 812 811 810 809 808 807 806 805 805 804 804 803 802 802 801 800 800 799 798 797 796 795 794 794 793 793 792 792 791 791 791 791 791 791 790 790 790 791 791 791 792 792 792 792 792 792 791 791 791 791 792 792 792 793 793
821 821 820 820 819 819 818 817 816 815 815 814 813 812 811 810 809 809 808 807 806 806 805 804 804 804 803 803 802 801 800 799 799 798 796 795 794 794 793 792 792 791 791 790 790 790 790 789 789 789 790 790 790 791 791 792 792 792 792 792 792 792 791 791 792 792 792 792 792
820 820 819 819 818 817 817 816 815 814 814 813 812 811 810 809 809 808 808 807 806 806 805 805 804 804 804 803 802 801 800 799 799 797 796 795 794 794 793 792 791 791 790 790 789 789 789 789 789 789 789 789 790 790 790 791 791 791 791 791 791 791 791 791 791 791 791 792 792
819 819 818 818 817 816 815 814 814 813 812 811 811 810 809 809 808 808 807 807 806 806 805 805 804 804 803 803 802 801 800 799 798 797 796 795 794 794 793 792 791 790 790 789 789 789 789 788 788 788 789 789 789 789 789 790 790 790 790 790 790 790 791 791 791 791 791 791 791
819 818 817 816 815 815 814 813 812 812 811 810 809 809 809 808 808 807 807 806 806 805 805 804 804 804 803 802 801 800 799 798 797 796 796 795 794 793 793 792 791 790 790 789 789 789 789 788 788 788 788 788 788 788 788 788 789 789 789 789 789 789 789 789 789 790 790 790 790
817 816 816 815 814 813 813 812 811 810 809 809 809 808 808 807 807 806 806 805 805 805 804 804 803 803 802 801 800 799 798 798 797 796 795 794 794 793 793 792 791 791 790 790 789 789 789 788 788 788 788 788 788 787 787 788 788 788 788 788 788 788 788 788 789 789 789 789 789
816 815 814 814 813 812 811 810 810 809 808 808 807 807 807 806 806 805 805 804 804 804 804 803 803 802 801 800 799 798 798 797 796 795 795 794 794 793 793 792 792 791 791 790 789 789 789 788 788 788 788 788 788 787 787 787 787 787 788 788 788 788 788 788 788 788 788 788 788
814 814 813 812 811 811 810 809 808 808 807 806 806 806 805 805 805 804 804 804 804 803 803 803 802 801 800 799 798 797 796 796 795 795 794 794 794 793 793 792 792 791 791 790 790 789 789 788 788 788 788 787 787 787 787 787 787 787 787 787 787 787 787 787 787 787 787 787 787
813 813 812 811 810 809 809 808 807 806 805 805 805 804 804 804 804 804 803 803 803 803 802 802 801 800 799 798 797 796 795 795 794 794 794 793 793 793 792 792 791 791 791 790 789 789 788 788 788 787 787 787 787 787 787 787 786 786 786 786 786 786 786 786 786 786 786 786 786
812 811 810 809 809 808 807 806 805 805 804 804 804 803 803 803 803 803 802 802 802 802 801 801 800 799 799 798 797 796 795 794 794 793 793 793 792 792 792 791 791 790 790 790 789 789 788 787 787 787 787 786 786 786 786 786 786 786 785 785 785 785 785 785 785 785 785 785 785
811 810 809 808 807 806 806 805 804 804 803 802 802 802 802 802 802 802 801 801 801 801 800 800 799 799 798 798 796 795 794 794 793 793 792 792 792 791 791 790 790 790 789 789 789 788 787 787 786 786 786 786 786 786 785 785 785 785 785 784 784 784 784 784 784 784 784 784 784
809 809 808 807 806 805 804 804 803 802 802 801 801 801 801 800 800 800 800 800 800 800 799 799 798 797 797 797 796 795 794 793 793 792 791 791 791 790 790 790 789 789 789 788 788 787 786 786 786 785 785 785 785 785 784 784 784 784 784 784 784 783 783 783 783 783 783 782 782
808 807 806 805 804 804 803 802 801 801 800 800 800 799 799 799 799 799 799 799 799 799 798 797 797 796 795 795 795 794 794 793 792 791 790 790 789 789 789 789 788 788 788 787 787 786 785 785 785 784 784 784 784 784 784 783 783 783 783 783 782 782 782 782 782 781 781 781 780
807 806 805 804 803 802 802 801 800 800 799 799 799 799 798 798 798 798 798 798 798 798 797 797 796 795 794 794 794 793 793 792 791 790 789 789 788 788 788 787 787 787 786 786 785 785 784 784 784 784 783 783 783 783 783 782 782 782 782 781 781 781 781 780 780 780 780 779 779
805 804 804 803 802 801 800 800 799 799 798 798 798 797 797 797 797 797 797 797 797 797 796 796 795 794 794 793 793 792 791 790 790 789 788 788 787 786 786 786 785 785 785 784 784 784 783 783 783 783 783 782 782 782 782 781 781 781 780 780 780 779 779 779 779 779 778 778 777
804 803 802 801 801 800 799 799 798 798 798 797 797 797 796 796 796 796 796 796 796 796 795 795 794 794 793 792 791 791 790 789 789 788 788 787 786 785 784 784 784 784 784 783 783 783 783 782 782 782 782 782 781 781 781 780 780 779 779 779 779 778 778 778 777 777 777 776 776
803 802 801 800 799 799 798 798 797 797 797 796 796 796 795 795 795 796 796 796 795 795 794 794 793 792 791 791 790 789 789 788 788 787 787 786 785 784 783 783 783 783 782 782 782 782 782 781 781 781 781 781 780 780 779 779 779 778 778 777 777 777 776 776 776 775 775 774 774
802 801 800 799 799 798 797 797 796 796 796 796 795 795 795 795 795 795 795 795 795 794 793 793 792 791 790 789 789 788 787 787 786 786 786 785 784 783 782 782 781 781 781 781 781 781 780 780 780 780 780 779 779 779 778 778 777 777 776 776 775 775 774 774 774 774 773 773 772
802 800 799 799 798 797 796 796 796 795 795 795 796 795 795 795 796 796 795 795 794 793 792 791 790 790 789 788 787 786 786 785 785 785 785 784 783 782 781 781 780 780 780 780 780 779 779 779 779 779 778 778 778 777 777 776 775 775 774 774 774 773 773 772 772 772 771 771 770
801 800 799 798 797 796 796 795 795 795 795 796 796 796 796 796 796 795 795 794 793 792 791 790 789 788 787 786 786 785 784 784 784 784 784 784 783 782 781 780 780 779 779 779 779 779 778 778 778 777 777 776 776 775 775 774 774 773 773 772 772 771 771 770 770 770 769 769 769
800 799 799 798 796 796 796 795 795 795 795 795 796 796 796 796 795 795 794 793 793 792 790 789 788 787 786 785 785 784 784 784 784 783 783 783 782 781 781 780 779 779 779 779 778 778 777 776 776 775 775 775 774 774 773 773 772 771 771 770 770 769 769 769 768 768 768 767 767
800 799 799 797 796 796 796 795 795 795 795 796 796 796 796 795 795 794 793 793 792 791 790 789 788 787 786 785 785 784 784 784 783 783 783 782 781 781 780 780 779 779 779 778 778 777 776 775 774 774 774 773 773 772 772 771 770 770 769 769 768 768 767 767 766 766 766 765 765
801 800 799 798 797 796 796 796 796 796 796 796 796 796 795 795 794 794 793 792 792 791 790 790 789 788 787 786 785 784 784 784 783 783 782 781 781 780 779 779 779 778 778 777 776 775 774 774 773 773 772 771 771 770 770 769 769 768 768 767 766 766 765 765 764 764 764 763 763
801 800 799 798 797 796 796 796 796 797 797 796 796 796 795 794 794 793 793 792 791 791 790 789 789 788 787 786 785 784 784 783 783 782 781 780 780 779 779 778 777 777 776 775 774 774 773 772 772 771 771 770 769 769 769 768 767 767 766 765 765 764 764 763 763 762 762 761 761
800 799 799 798 797 796 796 797 797 797 797 796 796 795 795 794 794 793 792 792 791 790 790 789 788 787 786 785 784 784 783 782 782 781 780 779 779 778 777 777 776 775 774 774 773 772 772 771 770 770 769 769 768 768 767 767 766 765 764 764 764 763 762 762 761 760 760 759 759
800 799 798 797 796 796 796 796 796 796 796 796 795 795 794 794 793 792 792 791 790 789 789 788 787 786 785 784 783 783 782 781 781 780 779 779 778 777 776 776 775 774 773 773 772 771 770 770 769 769 768 768 767 766 766 765 764 764 763 763 762 761 761 760 759 759 758 757 757
799 798 797 796 796 795 795 795 795 795 795 795 794 794 793 793 792 791 791 790 789 789 788 787 786 785 784 783 782 782 781 780 779 779 778 777 777 776 775 774 774 773 772 771 770 770 769 769 768 768 767 767 766 765 764 764 763 763 762 761 761 760 759 759 758 757 756 755 754
799 797 796 795 795 795 795 795 795 794 794 794 793 793 792 792 791 790 790 789 788 788 787 786 785 784 784 783 781 781 780 779 779 778 777 776 776 775 774 774 773 772 771 770 769 769 768 768 767 767 766 765 765 764 764 763 762 761 760 760 759 758 758 757 756 755 754 754 753
798 796 795 795 794 794 794 794 794 794 794 793 793 792 791 791 790 790 789 788 788 787 786 785 785 784 783 782 781 780 779 779 778 777 776 775 775 774 773 773 772 771 770 769 769 768 767 767 766 766 765 764 764 763 762 761 761 760 759 758 757 757 756 755 754 753 753 752 751
797 796 795 794 794 794 794 794 794 794 793 793 792 792 791 790 790 789 789 788 787 786 786 785 784 783 782 781 780 779 779 778 777 776 776 775 774 773 772 772 771 770 769 769 768 767 767 766 765 764 764 763 763 762 761 760 759 758 757 756 755 754 754 753 752 751 751 750 749
796 795 794 794 794 793 793 793 793 793 793 792 792 791 790 790 789 789 788 787 787 786 785 784 784 783 781 780 779 779 778 777 776 776 775 774 773 773 772 771 770 769 769 768 767 766 766 765 764 764 763 762 761 760 759 758 757 756 755 754 754 753 752 751 751 750 749 748 748
796 795 794 794 793 793 793 793 792 792 792 791 791 790 790 789 789 788 787 787 786 785 784 784 783 782 781 780 779 778 777 776 776 775 774 773 773 772 771 770 769 769 768 767 766 765 765 764 763 762 761 760 760 759 758 757 755 754 754 753 752 751 750 749 749 748 747 747 746
796 795 794 794 793 793 792 792 792 791 791 791 790 790 789 789 788 788 787 786 785 784 784 783 782 781 780 779 778 777 776 775 775 774 773 772 772 771 770 769 769 768 767 766 765 764 764 763 762 761 760 759 758 757 756 755 754 753 752 751 750 749 749 748 747 746 745 745 744
795 795 794 793 793 792 792 791 791 791 790 790 789 789 789 788 787 787 786 785 784 783 783 782 781 780 779 778 777 776 775 774 774 773 772 771 771 770 769 768 768 767 766 765 764 763 762 761 760 759 758 757 756 755 754 753 752 751 750 749 748 747 747 746 745 744 744 743 742
795 794 794 793 792 791 791 790 790 790 789 789 789 788 788 787 786 786 785 784 783 782 782 781 780 779 778 777 776 775 775 774 773 772 771 770 770 769 768 767 766 766 765 764 763 762 761 760 759 758 757 756 755 754 753 752 750 749 748 747 746 746 745 744 744 743 742 741 740
795 794 793 792 791 791 790 789 789 789 789 788 788 787 787 786 785 785 784 783 782 782 781 780 779 778 777 776 775 775 774 773 772 771 770 769 769 768 767 766 765 764 764 763 762 761 759 758 757 756 755 755 754 752 751 750 749 748 747 746 745 744 744 743 742 741 740 739 739
794 794 793 792 791 790 789 789 789 788 788 787 787 786 786 785 784 784 783 782 782 781 780 779 778 777 776 775 774 774 773 772 771 770 769 769 768 767 766 765 764 763 762 761 760 759 758 757 756 755 754 754 752 751 750 749 748 747 746 745 744 743 742 741 740 739 738 737 737
794 793 792 791 790 789 789 788 788 787 787 786 786 785 785 784 784 783 782 781 780 780 779 778 777 776 775 774 774 773 772 771 770 769 769 768 767 766 765 764 763 762 761 760 759 758 757 755 754 754 753 752 751 750 749 748 747 746 744 744 743 742 740 739 739 738 737 736 735
793 792 791 790 789 789 788 787 787 786 786 785 785 784 784 783 783 782 781 780 779 779 778 777 776 775 774 773 772 771 770 770 769 769 768 767 766 765 764 763 762 761 760 759 758 756 755 754 753 753 752 751 750 749 748 747 746 744 743 743 742 741 739 738 737 736 735 734 733